Regional Weather Roundup
Issued by NWS Charleston, SC

Current Version | Previous Version | Graphics & Text | Print | Product List | Glossary On
Versions: 1 2 3 4 5 6 7 8 9 10 11 12 13 14 15 16 17 18 19 20 21 22 23 24 25 26 27 28 29 30 31 32 33 34 35 36 37 38 39 40 41 42 43 44 45 46 47 48 49 50
000
ASUS42 KCHS 292213
RWRCHS

REGIONAL WEATHER ROUNDUP
NATIONAL WEATHER SERVICE CHARLESTON SC
600 PM EDT SUN MAY 29 2016

NOTE: "FAIR" INDICATES FEW OR NO CLOUDS BELOW 12,000 FEET WITH NO
SIGNIFICANT WEATHER AND/OR OBSTRUCTIONS TO VISIBILITY.

NOT ALL STATIONS ARE QUALITY CONTROLLED. USE DATA WITH CAUTION...
ESPECIALLY DEWPOINT OBSERVATIONS.

SCZ027-030-031-034>040-042>050-292300-
...SOUTHEAST SOUTH CAROLINA...

CITY           SKY/WX    TMP DP  RH WIND       PRES   REMARKS
N CHARLESTON   PTSUNNY   77  67  71 SE9       29.88S
WATERFRONT PRK   N/A     74  69  84 S9        29.87R
MOUNT PLEASANT CLOUDY    73  70  88 SE8       29.89S
JOHNS ISLAND   CLOUDY    73  68  83 S7        29.89S
PINOPOLIS        N/A     79  72  78 E6        29.82R
MONCKS CORNER  CLOUDY    72  64  78 E7        29.89S
SUMMERVILLE    CLOUDY    77  72  83 CALM      29.89S
BEAUFORT MCAS  LGT RAIN  69  67  93 NW13      29.90S FOG
BEAUFORT ARPT  DRIZZLE   70  68  94 NW16      29.90R
HILTON HEAD IS CLOUDY    68  68 100 W9G16     29.94
WALTERBORO     RAIN      72  72 100 NW8       29.90S
ALLENDALE      HVY RAIN  70  68  94 N8G18     29.95S VSB 1/4

...SOUTHERN MIDLANDS AND PEE DEE...

CITY           SKY/WX    TMP DP  RH WIND       PRES   REMARKS
GEORGETOWN     CLOUDY    72  68  88 E10G16    29.91F
KINGSTREE      CLOUDY    77  68  73 E7        29.92S
ORANGEBURG     LGT RAIN  72  69  90 N12       29.92F FOG
BARNWELL       CLOUDY    72  72 100 NW6       29.96F
AIKEN          LGT RAIN  72  63  73 N12G18    30.00F
MANNING        CLOUDY    75  68  78 NE6       29.91S
COLUMBIA       CLOUDY    78  65  63 N14G23    29.95F
SUMTER         PTSUNNY   72  70  92 N14       29.92R
FLORENCE       MOSUNNY   82  67  60 E13       29.94S
MYRTLE BEACH   PTSUNNY   79  66  65 SE10      29.96
N MYRTLE BEACH MOSUNNY   79  71  76 VRB7      29.95S

$$

GAZ063-065-086>088-099>101-113>116-118-119-134>141-150-292300-
...SOUTHEAST GEORGIA...

CITY           SKY/WX    TMP DP  RH WIND       PRES   REMARKS
SAVANNAH ARPT  LGT RAIN  69  64  84 W16G24    29.97S
HUNTER AAF     LGT RAIN  69  67  92 W10       29.95S
FORT STEWART   CLOUDY    77  62  58 W10       29.97F
STATESBORO     RAIN      69  67  94 NW6       29.99F
SYLVANIA       LGT RAIN  69  66  93 NW8       29.99S
CLAXTON        FAIR      76  66  70 W12       30.00F

...CSRA...CENTRAL AND FAR SOUTHEAST GEORGIA...

CITY           SKY/WX    TMP DP  RH WIND       PRES   REMARKS
THOMSON        PTSUNNY   75  66  73 NW5       30.08S
AUGUSTA-BUSH   CLOUDY    76  63  64 NW12      29.97F
AUGUSTA-DANIEL CLOUDY    77  61  57 NW10      29.98F
SWAINSBORO     FAIR      77  61  57 NW12G17   30.03F
VIDALIA        CLOUDY    81  59  47 NW13G21   30.03F
EASTMAN        FAIR      84  60  45 N6        30.05F
HAZLEHURST     FAIR      87  58  37 N12       30.02R
ALMA           SUNNY     86  60  41 NW10      30.01F
WAYCROSS       SUNNY     86  61  42 N9        30.01F
JESUP          FAIR      79  55  44 N16G26    30.01F
BAXLEY         FAIR      86  59  39 N10G17    30.01F
BRUNSWICK      MOSUNNY   88  63  42 NW10      30.01F
SAINT SIMONS   MOSUNNY   84  59  42 NW12G18   30.00S

$$

SCZ027-028-034-036>038-045-046-048>050-GAZ119-141-292300-
...LAKE AND SUPPLEMENTAL COASTAL OBSERVATIONS...

STATION/POSITION TIME  TEMP    WIND        PRES    WAVE   SWELL
                       AIR SEA DIR/SP/G            HT/PER HT/PER/DIR
                 (UTC) (F)     (DEG/KT/KT) (MB)    (FT/S) (FT/S/D)
WINYAH BAY       2045   74     140/ 13     1013.0
LAKE MURRAY      2100   77     360/  3/ 10 1014.6F
ACE BASIN NERRS  NOT AVBL
FORT PULASKI     2100   69 76  270/ 18/ 24 1014.8F
SAPELO ISLAND    2100   80     300/ 15     1016.0F

$$

ANZ835-935-AMZ111-154-330-350-352-354-370-450-454-472-292300-
...C-MAN AND BUOY OBSERVATIONS...

STATION/POSITION TIME  TEMP    WIND        PRES    WAVE   SWELL
                       AIR SEA DIR/SP/G            HT/PER HT/PER/DIR
                 (UTC) (F)     (DEG/KT/KT) (MB)    (FT/S) (FT/S/D)
BUOY 41004       2150   73 78  200/ 16/ 19 1012.8S   6/ 8
BUOY 41008       2150   77 76  270/ 17/ 21 1015.2F   3/ 4   2/ 90/ 8
FOLLY BEACH CMAN 2200   72     210/  9/ 11 1012.4F
CAPERS NEARSHORE 2108   72 76  210/ 12/ 16 1012.1F
FRIPP NEARSHORE  2108   71 75  260/ 21/ 29 1011.9F


STATION/POSITION TIME  TEMP    WIND        PRES    WAVE   SWELL
                       AIR SEA DIR/SP/G            HT/PER HT/PER/DIR
                 (UTC) (F)     (DEG/KT/KT) (MB)    (FT/S) (FT/S/D)
5E ST. MARYS GA  2201      79                N/A     2/ 8
FRYING PAN BUOY  2100   79 79  160/ 16/ 17 1014.6F
BUOY 41025       2150   78 78  180/ 19/ 21 1017.2F   6/ 8   2/220/16
CAPE LOOKOUT NC  2100   77     140/ 10/ 11 1016.4F
BUOY 41002       2150   76 76  130/ 12/ 14 1018.2F   4/ 7   3/110/ 7
BUOY 41010       2120   79 80  330/  4/  6 1017.5R
ST AUGUSTINE FL  2200   80 81   80/  8/  9 1017.1F


$$




USA.gov is the U.S. government's official web portal to all federal, state and local government web resources and services.